User: anonymous   Login
Location: Unspecified
(0.0000°N, 0.0000°E)
Time: 10:07:58
(UTC+00:00)
Language:

SJ-12 - Orbit

View from above orbital plane
View from above orbital plane
View from above satellite
View from above satellite

Ground track
Ground track

The orbit is defined by the following mean orbital elements,

1 36596U          26145.62737542 +.00000000 +00000-0 +21793-3 0 00001
2 36596  97.7629 162.7881 0007134 160.4205 199.7303 15.16481187    01
Epoch (UTC): 25 May 2026 15:03:25
Eccentricity: 0.0007134
inclination: 97.7629°
perigee height: 512 km
apogee height: 521 km
right ascension of ascending node: 162.7881°
argument of perigee: 160.4205°
revolutions per day: 15.16481187
mean anomaly at epoch: 199.7303°

The dashed part of the orbit path shows where the satellite is in the earth's shadow,  

DLR